| time (UTC) | temp C | wind direction | speed KPH | gust KPH | rain 1hr cm | rain 24hr cm | rain mn cm | humidity % | barometer mb |
| 20260503224527 | 17 | 323 | 3.2 | 8.0 | 0.00 | 0.00 | 0.00 | 31 | 1014.3 |
| 20260503223029 | 17 | 274 | 1.6 | 8.0 | 0.00 | 0.00 | 0.00 | 32 | 1014.2 |
| 20260503221532 | 17 | 91 | 1.6 | 11.3 | 0.00 | 0.00 | 0.00 | 33 | 1014.1 |
| 20260503220030 | 17 | 280 | 3.2 | 14.5 | 0.00 | 0.00 | 0.00 | 31 | 1014.1 |
| 20260503214529 | 17 | 297 | 4.8 | 14.5 | 0.00 | 0.00 | 0.00 | 32 | 1014.1 |
| 20260503213035 | 17 | 1 | 6.4 | 11.3 | 0.00 | 0.00 | 0.00 | 32 | 1014.2 |
| 20260503211529 | 16 | 358 | 6.4 | 20.9 | 0.00 | 0.00 | 0.00 | 32 | 1014.2 |
| 20260503210028 | 17 | 282 | 6.4 | 14.5 | 0.00 | 0.00 | 0.00 | 30 | 1014.0 |
| 20260503204528 | 16 | 288 | 4.8 | 14.5 | 0.00 | 0.00 | 0.00 | 32 | 1014.0 |
| 20260503203034 | 16 | 258 | 6.4 | 17.7 | 0.00 | 0.00 | 0.00 | 32 | 1014.1 |
| 20260503201531 | 16 | 283 | 4.8 | 11.3 | 0.00 | 0.00 | 0.00 | 33 | 1014.3 |
| 20260503200033 | 16 | 297 | 8.0 | 16.1 | 0.00 | 0.00 | 0.00 | 34 | 1014.3 |
| 20260503194531 | 16 | 279 | 8.0 | 16.1 | 0.00 | 0.00 | 0.00 | 33 | 1014.3 |
| 20260503193033 | 16 | 303 | 8.0 | 14.5 | 0.00 | 0.00 | 0.00 | 35 | 1014.5 |
| 20260503191528 | 16 | 6 | 8.0 | 17.7 | 0.00 | 0.00 | 0.00 | 35 | 1014.9 |
| 20260503190028 | 15 | 269 | 4.8 | 17.7 | 0.00 | 0.00 | 0.00 | 38 | 1014.8 |
| 20260503184529 | 15 | 307 | 8.0 | 14.5 | 0.00 | 0.00 | 0.00 | 38 | 1015.0 |
| 20260503183035 | 15 | 321 | 9.7 | 17.7 | 0.00 | 0.00 | 0.00 | 38 | 1015.1 |
| 20260503181601 | 15 | 297 | 4.8 | 17.7 | 0.00 | 0.00 | 0.00 | 38 | 1015.1 |
| 20260503180029 | 15 | 279 | 4.8 | 19.3 | 0.00 | 0.00 | 0.00 | 39 | 1015.1 |
| 20260503174529 | 14 | 311 | 9.7 | 20.9 | 0.00 | 0.05 | 0.00 | 39 | 1015.3 |
| 20260503173042 | 14 | 308 | 6.4 | 20.9 | 0.00 | 0.05 | 0.00 | 39 | 1015.4 |
| 20260503171528 | 13 | 282 | 9.7 | 24.1 | 0.00 | 0.05 | 0.00 | 41 | 1015.6 |
| 20260503081527 | 10 | 330 | 0.0 | 1.6 | 0.00 | 0.23 | 0.00 | 70 | 1011.7 |
| 20260503071531 | 9 | 0 | 1.6 | 4.8 | 0.00 | 0.23 | 0.00 | 72 | 1011.1 |
| 20260503054527 | 10 | 0 | 0.0 | 3.2 | 0.00 | 0.23 | 0.00 | 64 | 1010.4 |
| 20260503053036 | 11 | 285 | 1.6 | 4.8 | 0.00 | 0.23 | 0.00 | 63 | 1010.7 |
| 20260503051530 | 11 | 0 | 0.0 | 8.0 | 0.00 | 0.23 | 0.00 | 62 | 1010.8 |
| 20260503050027 | 11 | 281 | 3.2 | 6.4 | 0.00 | 0.23 | 0.00 | 60 | 1010.7 |
| 20260503044559 | 12 | 309 | 4.8 | 9.7 | 0.00 | 0.23 | 0.00 | 62 | 1010.8 |
| 20260503043026 | 12 | 285 | 1.6 | 8.0 | 0.00 | 0.23 | 0.00 | 63 | 1010.7 |
| 20260503041528 | 12 | 315 | 1.6 | 6.4 | 0.00 | 0.23 | 0.00 | 64 | 1010.7 |
| 20260503040031 | 12 | 0 | 1.6 | 8.0 | 0.00 | 0.23 | 0.00 | 64 | 1010.8 |
| 20260503034529 | 12 | 336 | 1.6 | 4.8 | 0.00 | 0.23 | 0.23 | 63 | 1010.8 |
| 20260503033029 | 12 | 309 | 1.6 | 8.0 | 0.00 | 0.23 | 0.23 | 62 | 1010.6 |
| 20260503031530 | 12 | 318 | 1.6 | 9.7 | 0.00 | 0.23 | 0.23 | 61 | 1010.6 |
| 20260503030032 | 12 | 284 | 0.0 | 1.6 | 0.00 | 0.23 | 0.23 | 62 | 1010.5 |
| 20260503024528 | 12 | 283 | 0.0 | 4.8 | 0.00 | 0.23 | 0.23 | 60 | 1010.7 |
| 20260503023027 | 12 | 0 | 0.0 | 6.4 | 0.00 | 0.23 | 0.23 | 59 | 1010.8 |
| 20260503021526 | 12 | 0 | 0.0 | 6.4 | 0.00 | 0.23 | 0.23 | 59 | 1010.7 |
| 20260503020034 | 12 | 314 | 1.6 | 4.8 | 0.00 | 0.23 | 0.23 | 59 | 1010.7 |
| 20260503014530 | 12 | 311 | 1.6 | 6.4 | 0.00 | 0.23 | 0.23 | 58 | 1010.7 |
| 20260503013028 | 12 | 53 | 1.6 | 8.0 | 0.00 | 0.23 | 0.23 | 58 | 1010.3 |
| 20260503011532 | 12 | 0 | 1.6 | 6.4 | 0.00 | 0.23 | 0.23 | 58 | 1010.3 |
| 20260503010032 | 12 | 41 | 1.6 | 6.4 | 0.00 | 0.23 | 0.23 | 57 | 1010.4 |
| 20260503004530 | 12 | 316 | 1.6 | 6.4 | 0.00 | 0.23 | 0.23 | 58 | 1010.3 |
| 20260503003035 | 12 | 0 | 1.6 | 9.7 | 0.00 | 0.23 | 0.23 | 58 | 1010.0 |
| 20260503001528 | 12 | 341 | 3.2 | 14.5 | 0.00 | 0.23 | 0.23 | 57 | 1009.9 |
| 20260503000035 | 12 | 35 | 3.2 | 11.3 | 0.00 | 0.23 | 0.23 | 56 | 1009.8 |
| 20260502234546 | 12 | 270 | 3.2 | 12.9 | 0.00 | 0.23 | 0.23 | 52 | 1009.6 |
| 20260502233030 | 12 | 0 | 1.6 | 9.7 | 0.00 | 0.23 | 0.23 | 50 | 1009.5 |
| 20260502231532 | 12 | 352 | 1.6 | 19.3 | 0.00 | 0.23 | 0.23 | 50 | 1009.5 |
| 20260502230030 | 12 | 265 | 3.2 | 11.3 | 0.00 | 0.23 | 0.23 | 53 | 1009.5 |